Vertical_Velocity
-6 -7 13 -4 11 -4 -1 4 -2 1 -4 2 -4 3 -1 8 7 8 -1 14 -4 1 -3 -0 -3 2 1 -1 -4 1 3 -2 -1 -1 -2 -1 0 1 -2 1 -4 2 3 1 -0 1 0 -1 2
45 -9 -7 6 3 -1 0 3 1 5 4 -5 -1 -1 4 8 -3 0 -3 3 -4 -3 -5 -3 -2 0 0 -1 -2 4 3 -2 1 -1 1 -2 1 -1 1 -1 -2 2 1 -1 -1 -1 1 -1 -0
3 -6 13 2 1 -3 2 2 2 3 -1 2 1 -7 3 12 -10 5 14 -8 20 -7 -4 -4 -4 -0 -1 2 2 0 1 -2 -0 -1 3 -0 2 -1 -0 0 -2 -1 -2 1 -1 -2 -2 -1 -3
19 12 3 -2 -2 11 -0 3 0 1 2 -7 -6 1 -2 -8 4 -6 -5 0 16 -5 8 2 1 -2 -1 2 3 0 0 -5 2 -1 4 0 2 -2 0 0 -2 1 -1 -0 1 -0 -1 1 -1
11 3 -1 1 2 2 2 1 0 0 -1 3 -5 11 1 -5 7 -4 1 11 -10 6 -6 1 2 -1 1 1 1 2 2 -9 3 -1 -0 -1 4 -2 -1 -1 1 0 -1 -2 -3 -3 -2 -1 1
-14 7 -2 -0 3 1 2 1 -2 -0 -1 -3 0 -1 1 2 -5 -12 4 -4 -16 22 1 -7 1 -0 3 5 3 3 -0 -7 2 -3 -1 -2 4 -0 -3 -0 -0 -0 -1 -2 -0 -2 -2 -1 -2
8 1 -1 1 2 -1 3 -2 0 1 -0 7 -9 1 6 1 1 7 1 -10 1 4 12 -6 -2 -1 -3 0 -2 0 -2 -4 2 2 0 2 -2 -1 -2 0 -0 -2 -3 -1 -0 -1 -2 -2 -3
5 -3 -0 1 1 -3 1 1 -4 3 8 -9 -9 3 7 -10 5 -5 -6 -6 8 -6 4 -2 1 -3 -6 -4 -3 -5 1 -10 2 3 -2 2 -1 -2 -1 0 0 -2 -3 -1 1 -1 -2 -4 -4
-2 1 -0 0 -4 -3 -0 1 -4 -8 5 -1 -1 7 14 -8 -9 2 -8 13 11 -8 2 -4 6 9 8 -2 -6 -6 1 -5 -4 2 -2 0 3 -4 -6 2 -0 -2 -3 -2 -1 -0 -6 -7 -7
4 -1 4 2 -1 2 -1 2 -0 2 3 6 -2 -3 1 -0 -3 1 4 -4 -6 1 4 26 12 -11 -2 -2 -10 6 -1 0 -10 6 -1 -5 14 12 16 -4 1 -2 -4 -4 -2 -3 -5 -8 27
2 3 1 4 -0 -4 3 1 -2 2 -5 4 2 -1 -2 5 2 -3 -2 7 -8 2 -6 -1 3 6 7 -4 -15 7 -4 -5 -2 3 5 -12 25 1 -8 -5 -4 -7 -2 -7 -10 -11 -4 -1 -4
3 0 1 -1 -3 3 1 -4 -0 1 7 5 -3 -5 -0 -9 -5 1 1 -2 13 1 14 8 1 -6 13 1 -2 -1 -2 -8 -1 6 -0 -8 14 -14 21 -3 18 4 1 -3 -18 66 -11 -21 -31
1 0 -2 -2 3 -1 -3 -1 -1 -0 -7 0 -1 -1 2 -8 -6 -4 7 4 -5 -3 18 -4 -10 -2 9 -2 -2 0 3 -1 -6 -2 -0 3 23 1 -12 0 4 26 -35 13 -10 -2 10 -7 28
-0 -2 0 -2 0 -0 4 1 4 7 -6 1 -3 3 0 2 -1 0 -5 -12 12 1 -8 14 -5 -6 -3 3 -1 -0 -2 -11 1 -3 -4 -3 25 -21 16 -11 -2 4 -0 8 -2 -3 -1 -14 7
0 5 3 2 -0 1 -0 -8 -0 4 -4 1 1 -2 3 0 14 1 -13 -12 11 -8 -13 0 2 -0 1 -4 -1 -1 -2 -13 -2 -5 11 -10 2 -14 23 5 11 12 -17 -21 -8 -12 -7 -5 12
9 7 1 5 0 1 8 7 2 1 -1 -1 3 -1 -2 1 -2 -0 6 5 14 3 -7 -8 4 -2 3 -4 -3 -3 -4 5 6 8 -8 -7 12 -6 -15 -7 4 5 -14 1 7 -5 -2 15 5
5 1 -0 8 -0 1 6 -0 4 -1 -1 3 -1 1 -1 1 5 -5 0 -2 -1 16 -6 -9 3 2 2 -6 -2 -4 -6 -4 4 -10 -3 -6 -4 -6 -1 8 7 -23 18 1 -8 29 -29 15 4
2 2 2 1 7 1 -2 -3 -0 -3 2 -1 -3 3 -1 -0 -3 -7 4 -1 -2 -4 -3 8 5 -7 -1 -2 -2 -4 -2 3 -7 -9 14 -13 6 3 -9 0 -0 -16 10 7 15 -19 8 -27 5
2 2 1 -2 2 4 -0 -1 -2 -0 1 2 0 -1 0 -2 -3 2 1 -2 1 1 -2 -5 1 -3 -2 -4 -4 2 1 3 -7 8 18 -5 14 -1 -7 27 -15 -16 6 14 -5 -0 -5 7 -33
1 2 -4 -2 0 10 -1 -6 -3 0 -3 -5 -4 2 -1 1 8 3 -3 3 -1 -1 1 -1 2 -8 -1 -2 -3 2 -0 11 -4 11 -11 -0 -1 0 -4 -4 7 -10 31 -12 -10 -11 -4 25 -6
-1 3 -1 5 -2 -3 9 -4 2 5 1 3 2 -6 5 -1 -0 -3 0 1 1 -2 -2 -2 -1 -1 -5 -1 2 1 13 7 1 -1 -3 -4 0 -0 -6 -5 -1 7 -12 21 5 -7 -5 19 -31
5 -2 1 1 6 1 1 -7 -3 1 2 2 -0 -0 -3 -0 -1 4 -1 -1 -1 2 -2 1 -2 0 -4 -4 6 1 -0 0 -6 -6 3 1 -2 -3 1 -3 -3 -5 5 22 16 -16 -6 -0 4
-18 4 3 2 2 11 -7 12 -15 1 0 -1 0 -2 -3 -5 1 -1 -6 -5 3 3 -4 1 -1 -0 2 -8 8 -4 2 4 -5 4 15 -6 2 -3 -3 -1 -2 -2 -7 -1 -14 -4 -6 7 -9
-1 3 3 2 5 10 -11 11 -11 2 0 -0 -1 9 -5 1 -1 1 2 2 -1 5 1 2 -2 -1 1 -0 -4 -6 0 -3 -2 -9 24 -1 -2 -7 -9 4 -2 -0 0 -9 2 -7 -7 -8 -2
11 10 1 11 11 -10 -3 5 -1 -1 -0 -2 -1 -1 6 -5 -3 2 0 0 -0 6 -2 3 -4 -3 -1 -2 -2 -4 -2 -4 4 2 -11 3 4 6 -2 -6 -5 -1 -6 -1 2 0 -6 1 -2
-4 4 4 0 1 -4 1 -2 -6 -2 0 -1 -2 0 -3 -3 11 -6 -3 -0 -2 2 -3 1 -3 -2 -2 -2 -2 -1 -3 -5 -7 -11 16 -18 -5 26 43 -6 -4 -5 2 1 -3 -6 -4 14 20
-18 8 -12 11 -0 11 -3 -10 -3 1 -1 -1 0 -0 5 -1 0 -3 -0 -2 4 -4 -2 -6 -0 -0 -1 -1 -1 -4 -2 -5 -1 2 -9 -6 -4 -5 -5 18 -0 -6 -1 -2 0 -6 -3 -3 6
11 -6 15 4 4 -2 -7 -2 -7 3 -0 -1 -1 -0 2 -6 -2 7 2 -0 1 -4 -1 1 3 -3 -1 1 -0 -0 -3 -2 -3 1 -6 4 2 -9 7 -2 -8 -1 -0 -2 4 3 -8 -5 -5
10 3 4 15 10 4 -1 -8 4 1 -1 -0 -1 -0 1 -1 4 -3 -0 0 -0 -2 6 -3 2 -1 -3 -2 -1 -2 -4 -1 1 -1 -0 -4 -1 5 -6 -4 -2 -5 -0 -0 -2 1 -3 8 -2
1 -1 -1 8 -12 -1 9 -17 1 1 0 1 -2 -5 6 -6 3 -4 -2 1 1 -4 3 -6 0 -0 -1 2 2 -1 2 1 1 -2 -1 -2 -5 -3 -2 -2 -2 -2 -4 1 13 -2 5 13 10
Height
1519 1519 1522 1521 1519 1508 1522 1500 1490 1500 1507 1503 1508 1508 1512 1513 1516 1529 1528 1531 1533 1538 1541 1544 1548 1550 1552 1554 1557 1560 1560 1562 1563 1564 1565 1565 1566 1567 1567 1567 1568 1568 1568 1569 1570 1570 1571 1572 1573
1524 1522 1521 1514 1523 1522 1513 1495 1500 1503 1506 1508 1509 1509 1506 1517 1520 1525 1530 1533 1537 1540 1542 1545 1548 1551 1554 1557 1559 1561 1562 1563 1564 1567 1567 1568 1568 1568 1569 1569 1569 1570 1571 1571 1572 1573 1573 1574 1575
1523 1522 1519 1510 1511 1536 1517 1501 1504 1508 1510 1508 1508 1512 1512 1520 1526 1528 1530 1535 1539 1541 1543 1547 1549 1552 1555 1558 1560 1562 1563 1564 1565 1568 1569 1569 1569 1570 1570 1571 1571 1572 1572 1573 1574 1574 1576 1577 1577
1524 1521 1517 1525 1529 1503 1505 1501 1506 1508 1511 1514 1512 1512 1522 1526 1527 1530 1532 1537 1540 1544 1547 1547 1550 1554 1557 1559 1561 1563 1565 1566 1567 1568 1569 1570 1571 1571 1572 1573 1574 1573 1574 1575 1576 1577 1578 1579 1579
1522 1516 1521 1520 1509 1500 1501 1504 1506 1508 1512 1513 1514 1512 1522 1529 1530 1531 1535 1537 1541 1546 1547 1548 1551 1554 1557 1560 1563 1565 1566 1567 1569 1569 1570 1572 1572 1573 1574 1574 1575 1575 1576 1577 1578 1579 1580 1580 1580
1520 1511 1533 1524 1506 1504 1503 1506 1507 1509 1512 1515 1514 1515 1524 1530 1532 1534 1537 1539 1544 1546 1549 1550 1552 1555 1559 1561 1563 1566 1567 1567 1571 1571 1571 1573 1574 1574 1575 1576 1577 1577 1578 1579 1580 1581 1581 1581 1580
1515 1514 1519 1520 1509 1513 1506 1506 1506 1509 1510 1513 1518 1513 1525 1531 1535 1536 1538 1540 1545 1547 1548 1552 1554 1555 1557 1562 1564 1566 1568 1569 1572 1572 1573 1574 1575 1576 1577 1578 1578 1579 1580 1581 1582 1583 1583 1582 1580
1512 1511 1511 1510 1518 1517 1508 1507 1510 1509 1513 1518 1519 1514 1522 1530 1535 1537 1540 1542 1544 1548 1550 1553 1556 1557 1559 1561 1564 1567 1569 1569 1573 1574 1573 1575 1576 1577 1578 1579 1580 1581 1581 1582 1583 1584 1584 1583 1579
1514 1519 1521 1512 1520 1508 1508 1509 1511 1514 1512 1517 1520 1519 1522 1529 1534 1538 1541 1543 1546 1547 1551 1553 1557 1556 1559 1561 1564 1567 1569 1570 1572 1574 1575 1576 1580 1580 1580 1581 1581 1582 1583 1583 1584 1584 1584 1583 1577
1512 1510 1510 1506 1503 1504 1509 1508 1509 1513 1510 1513 1519 1523 1525 1529 1534 1538 1540 1544 1546 1549 1551 1550 1554 1555 1553 1560 1564 1568 1570 1571 1572 1575 1577 1578 1578 1582 1583 1582 1583 1584 1584 1585 1585 1585 1585 1582 1572
1510 1513 1510 1505 1508 1509 1506 1508 1509 1509 1517 1513 1515 1522 1526 1530 1534 1538 1540 1543 1546 1548 1551 1553 1553 1558 1559 1561 1565 1570 1570 1570 1573 1575 1577 1579 1580 1584 1585 1584 1585 1586 1587 1586 1587 1586 1584 1585 1578
1509 1509 1511 1511 1510 1507 1507 1509 1509 1508 1511 1512 1516 1521 1525 1530 1535 1537 1540 1542 1545 1548 1551 1552 1556 1559 1561 1564 1568 1569 1568 1568 1572 1576 1577 1580 1582 1584 1586 1587 1588 1589 1589 1590 1589 1586 1587 1588 1583
1506 1508 1511 1510 1507 1507 1507 1506 1506 1507 1512 1514 1518 1521 1524 1529 1534 1537 1539 1542 1545 1548 1550 1552 1555 1558 1560 1563 1564 1565 1567 1568 1571 1575 1578 1581 1583 1585 1586 1587 1589 1588 1590 1590 1590 1590 1589 1587 1574
1508 1508 1508 1508 1506 1504 1506 1506 1507 1505 1511 1514 1518 1520 1523 1526 1531 1535 1539 1541 1544 1546 1549 1550 1553 1556 1559 1561 1562 1564 1565 1565 1571 1575 1578 1581 1583 1585 1587 1588 1589 1590 1590 1590 1591 1590 1589 1587 1586
1506 1503 1500 1503 1504 1502 1511 1510 1507 1504 1509 1513 1516 1519 1521 1524 1527 1532 1536 1540 1542 1545 1548 1551 1552 1555 1558 1558 1561 1562 1564 1563 1571 1574 1576 1580 1582 1584 1587 1588 1589 1590 1591 1591 1591 1590 1589 1587 1586
1502 1496 1505 1500 1502 1502 1509 1508 1507 1504 1506 1510 1513 1517 1520 1523 1526 1530 1533 1537 1540 1542 1545 1550 1551 1555 1557 1558 1560 1563 1566 1569 1571 1576 1577 1580 1582 1584 1585 1588 1589 1589 1591 1591 1591 1590 1589 1588 1586
1494 1497 1496 1499 1501 1500 1498 1499 1499 1502 1505 1505 1510 1513 1517 1521 1524 1528 1531 1535 1538 1541 1542 1546 1550 1553 1556 1557 1560 1563 1568 1570 1573 1573 1576 1580 1582 1584 1585 1587 1588 1589 1590 1590 1589 1587 1589 1586 1585
1492 1495 1496 1498 1497 1499 1496 1493 1490 1498 1502 1502 1506 1509 1514 1518 1521 1525 1529 1532 1535 1539 1542 1546 1547 1550 1554 1556 1559 1563 1567 1570 1571 1573 1576 1578 1582 1584 1584 1587 1587 1589 1589 1587 1589 1589 1588 1586 1582
1490 1497 1501 1494 1492 1500 1494 1491 1485 1489 1497 1499 1501 1504 1508 1513 1517 1521 1526 1530 1534 1537 1539 1542 1546 1548 1551 1554 1558 1562 1565 1568 1570 1574 1576 1578 1580 1583 1583 1586 1586 1587 1586 1584 1587 1589 1587 1586 1580
1494 1499 1498 1489 1494 1496 1492 1490 1478 1481 1487 1492 1496 1497 1502 1507 1511 1517 1522 1526 1530 1534 1537 1539 1542 1544 1548 1551 1556 1560 1563 1566 1569 1572 1573 1577 1579 1581 1583 1583 1585 1585 1586 1586 1587 1587 1585 1585 1582
1496 1496 1492 1494 1491 1493 1489 1486 1473 1475 1482 1486 1490 1493 1495 1500 1506 1512 1517 1521 1526 1530 1534 1536 1539 1541 1544 1547 1552 1557 1560 1564 1565 1569 1570 1574 1577 1579 1580 1582 1583 1583 1584 1583 1584 1585 1586 1586 1584
1497 1484 1488 1492 1501 1505 1483 1503 1477 1469 1474 1479 1484 1487 1490 1494 1500 1506 1512 1517 1521 1525 1530 1534 1536 1539 1542 1545 1550 1554 1557 1560 1563 1567 1570 1573 1575 1577 1579 1580 1581 1582 1584 1582 1583 1584 1585 1586 1585
1491 1482 1487 1489 1495 1495 1488 1493 1471 1462 1469 1468 1471 1478 1482 1487 1492 1498 1505 1512 1517 1522 1526 1530 1533 1536 1540 1543 1548 1551 1555 1559 1562 1566 1569 1570 1573 1575 1577 1578 1579 1581 1582 1583 1583 1583 1584 1584 1586
1485 1490 1488 1488 1489 1503 1480 1480 1471 1459 1463 1463 1464 1466 1474 1480 1485 1491 1499 1507 1512 1517 1523 1527 1529 1532 1536 1539 1544 1548 1552 1555 1560 1562 1566 1568 1571 1572 1574 1576 1577 1578 1580 1581 1583 1582 1583 1583 1583
1483 1488 1502 1504 1497 1494 1457 1469 1462 1453 1456 1460 1462 1464 1467 1472 1479 1485 1492 1499 1507 1512 1518 1522 1525 1528 1532 1536 1540 1544 1549 1552 1557 1559 1562 1565 1567 1569 1569 1572 1574 1576 1577 1579 1581 1581 1582 1582 1582
1482 1481 1487 1503 1487 1469 1452 1479 1463 1451 1455 1457 1459 1460 1464 1467 1469 1478 1485 1493 1501 1508 1513 1518 1522 1524 1528 1532 1536 1540 1544 1550 1553 1557 1560 1562 1564 1565 1566 1567 1571 1573 1575 1577 1578 1579 1579 1579 1577
1476 1484 1470 1478 1467 1474 1460 1454 1445 1444 1451 1451 1451 1456 1458 1464 1467 1471 1479 1488 1495 1502 1508 1513 1517 1521 1524 1529 1532 1536 1541 1545 1549 1553 1556 1558 1561 1563 1565 1566 1567 1570 1571 1572 1574 1575 1575 1576 1576
1471 1464 1480 1475 1501 1500 1468 1464 1460 1448 1453 1452 1451 1453 1457 1463 1466 1468 1474 1482 1490 1498 1504 1509 1514 1517 1520 1526 1529 1533 1536 1539 1544 1548 1551 1554 1557 1558 1560 1562 1565 1567 1568 1569 1569 1570 1571 1570 1572
1469 1474 1470 1465 1463 1478 1481 1461 1439 1449 1451 1451 1450 1452 1455 1460 1463 1466 1470 1478 1486 1494 1499 1505 1510 1514 1518 1522 1526 1530 1532 1536 1538 1543 1546 1548 1552 1554 1555 1557 1560 1563 1564 1564 1564 1564 1566 1566 1565
1453 1454 1456 1474 1483 1468 1468 1462 1433 1441 1447 1450 1451 1452 1454 1461 1461 1463 1468 1474 1481 1489 1495 1500 1505 1510 1513 1517 1522 1525 1529 1533 1536 1538 1542 1544 1545 1548 1551 1553 1555 1557 1559 1560 1559 1560 1561 1561 1561